Weather History for Troy, MI

Change the Weather History Date:

Thursday, August 14, 2014

  Actual Average (KDET) Record (KDET)
Temperature  
Mean Temperature 60 °F -  
Max Temperature 69 °F 82 °F 95 °F (1965)
Min Temperature 52 °F 65 °F 48 °F (1964)
Degree Days  
Heating Degree Days 4    
Growing Degree Days 10 (Base 50)    
Moisture  
Dew Point 45 °F    
Average Humidity 56    
Maximum Humidity 84    
Minimum Humidity 37    
Precipitation  
Precipitation 0.00 in - - ()
Sea Level Pressure  
Sea Level Pressure 30.01 in    
Wind  
Wind Speed 8 mph (NW)    
Max Wind Speed 16 mph    
Max Gust Speed 26 mph    
Visibility 10 miles    
Events      
Averages and records for this station are not official NWS values.
T = Trace of Precipitation, MM = Missing Value Source: NWS Daily Summary

Daily Weather History Graph

Daily Weather History Graph

Search for Another Location

Airport:

Trip Planner

Search our weather history database for the weather conditions in past years. The results will help you decide how hot, cold, wet, or windy it might be!

Date:

Astronomy

Aug. 14, 2014 Rise Set
Actual Time 6:38 AM EDT 8:35 PM EDT
Civil Twilight 6:07 AM EDT 9:05 PM EDT
Nautical Twilight 5:30 AM EDT 9:43 PM EDT
Astronomical Twilight 4:49 AM EDT 10:23 PM EDT
Moon 10:50 PM EDT (8/14) 11:20 AM EDT (8/14)
Length of Visible Light 14h 58m
Length of Day
13h 57m
Waning Gibbous, 79% of the Moon is Illuminated
Aug 14
Waning Gibbous
Aug 17
Last Quarter
Aug 25
New
Sep 2
First Quarter
Sep 8
Full

Hourly Weather History & Observations

Time (EDT) Temp. Dew Point Humidity Pressure Visibility Wind Dir Wind Speed Gust Speed Precip Events Conditions
12:15 AM 64.6 °F 46.4 °F 52% 29.99 in 10.0 mi NNW 6.9 mph - N/A   Scattered Clouds
12:34 AM 63.7 °F 46.6 °F 54% 29.99 in 10.0 mi NW 5.8 mph - N/A   Clear
12:55 AM 63.1 °F 46.8 °F 55% 30.00 in 10.0 mi NNW 6.9 mph - N/A   Clear
1:14 AM 62.2 °F 47.3 °F 58% 30.00 in 10.0 mi NNW 8.1 mph - N/A   Clear
1:35 AM 61.7 °F 47.8 °F 60% 30.00 in 10.0 mi NNW 9.2 mph - N/A   Clear
1:55 AM 61.2 °F 48.4 °F 63% 30.00 in 10.0 mi NNW 6.9 mph - N/A   Clear
2:14 AM 60.6 °F 49.1 °F 66% 29.99 in 10.0 mi NNW 8.1 mph - N/A   Clear
2:35 AM 59.5 °F 49.1 °F 68% 30.00 in 10.0 mi NNW 6.9 mph - N/A   Clear
2:55 AM 59.0 °F 49.1 °F 70% 30.00 in 10.0 mi NNW 6.9 mph - N/A   Clear
3:14 AM 58.3 °F 49.1 °F 71% 30.00 in 10.0 mi NW 8.1 mph - N/A   Clear
3:35 AM 57.6 °F 49.1 °F 73% 30.00 in 10.0 mi NW 8.1 mph - N/A   Clear
3:55 AM 56.8 °F 48.9 °F 75% 30.00 in 10.0 mi NNW 6.9 mph - N/A   Clear
4:14 AM 56.3 °F 48.6 °F 75% 30.00 in 10.0 mi NW 6.9 mph - N/A   Clear
4:35 AM 55.6 °F 48.4 °F 77% 30.00 in 10.0 mi NW 9.2 mph - N/A   Clear
4:54 AM 55.0 °F 48.2 °F 78% 30.01 in 10.0 mi NW 8.1 mph 17.3 mph N/A   Clear
5:15 AM 54.5 °F 48.0 °F 79% 30.01 in 10.0 mi NW 8.1 mph - N/A   Clear
5:35 AM 54.1 °F 48.4 °F 81% 30.01 in 10.0 mi NW 10.4 mph - N/A   Clear
5:54 AM 53.8 °F 48.6 °F 82% 30.01 in 10.0 mi NW 5.8 mph - N/A   Clear
6:15 AM 53.4 °F 48.4 °F 83% 30.02 in 10.0 mi NW 8.1 mph 16.1 mph N/A   Clear
6:34 AM 53.1 °F 48.2 °F 84% 30.03 in 10.0 mi NNW 9.2 mph - N/A   Clear
6:55 AM 52.7 °F 47.8 °F 84% 30.03 in 10.0 mi NNW 8.1 mph - N/A   Clear
7:15 AM 52.7 °F 47.7 °F 83% 30.04 in 10.0 mi NW 4.6 mph - N/A   Clear
7:34 AM 52.9 °F 47.7 °F 82% 30.05 in 10.0 mi NW 6.9 mph - N/A   Clear
7:55 AM 53.6 °F 47.3 °F 79% 30.05 in 10.0 mi NW 8.1 mph - N/A   Clear
8:15 AM 54.7 °F 47.5 °F 77% 30.05 in 10.0 mi NW 6.9 mph - N/A   Clear
8:34 AM 55.2 °F 47.7 °F 76% 30.05 in 10.0 mi WNW 9.2 mph - N/A   Clear
8:55 AM 56.1 °F 47.8 °F 74% 30.05 in 10.0 mi NW 10.4 mph - N/A   Clear
9:15 AM 56.5 °F 48.2 °F 74% 30.05 in 10.0 mi WNW 8.1 mph - N/A   Clear
9:34 AM 57.6 °F 46.9 °F 68% 30.05 in 10.0 mi WNW 9.2 mph - N/A   Clear
9:55 AM 58.5 °F 46.0 °F 63% 30.05 in 10.0 mi NW 11.5 mph 18.4 mph N/A   Clear
10:15 AM 59.7 °F 46.2 °F 61% 30.05 in 10.0 mi NW 13.8 mph 18.4 mph N/A   Clear
10:35 AM 60.6 °F 46.2 °F 59% 30.05 in 10.0 mi WNW 12.7 mph 17.3 mph N/A   Clear
10:54 AM 61.9 °F 45.0 °F 54% 30.05 in 10.0 mi NW 11.5 mph 19.6 mph N/A   Scattered Clouds
11:15 AM 61.7 °F 42.8 °F 50% 30.05 in 10.0 mi WNW 16.1 mph 21.9 mph N/A   Scattered Clouds
11:35 AM 63.0 °F 43.3 °F 49% 30.04 in 10.0 mi NW 12.7 mph 17.3 mph N/A   Scattered Clouds
11:54 AM 63.5 °F 42.6 °F 47% 30.04 in 10.0 mi WNW 16.1 mph 21.9 mph N/A   Mostly Cloudy
12:15 PM 64.2 °F 42.4 °F 45% 30.03 in 10.0 mi NW 9.2 mph 19.6 mph N/A   Mostly Cloudy
12:35 PM 64.4 °F 42.3 °F 44% 30.03 in 10.0 mi WNW 10.4 mph 21.9 mph N/A   Scattered Clouds
12:54 PM 65.1 °F 43.0 °F 45% 30.03 in 10.0 mi NNW 15.0 mph 19.6 mph N/A   Mostly Cloudy
1:15 PM 65.3 °F 41.9 °F 42% 30.02 in 10.0 mi NNW 12.7 mph 23.0 mph N/A   Mostly Cloudy
1:35 PM 66.4 °F 42.3 °F 41% 30.02 in 10.0 mi NW 11.5 mph 24.2 mph N/A   Scattered Clouds
1:54 PM 66.2 °F 41.9 °F 41% 30.02 in 10.0 mi NW 12.7 mph 19.6 mph N/A   Scattered Clouds
2:15 PM 66.7 °F 42.1 °F 41% 30.02 in 10.0 mi WNW 15.0 mph 23.0 mph N/A   Scattered Clouds
2:34 PM 67.3 °F 40.6 °F 38% 30.02 in 10.0 mi WNW 13.8 mph 26.5 mph N/A   Mostly Cloudy
2:55 PM 67.3 °F 42.1 °F 40% 30.01 in 10.0 mi WNW 11.5 mph 20.7 mph N/A   Scattered Clouds
3:15 PM 68.0 °F 41.7 °F 38% 30.00 in 10.0 mi WNW 16.1 mph 23.0 mph N/A   Scattered Clouds
3:34 PM 67.5 °F 43.3 °F 42% 30.00 in 10.0 mi WNW 10.4 mph 18.4 mph N/A   Scattered Clouds
3:55 PM 68.5 °F 41.5 °F 37% 30.00 in 10.0 mi NW 10.4 mph 25.3 mph N/A   Scattered Clouds
4:14 PM 68.4 °F 41.4 °F 37% 30.00 in 10.0 mi NW 11.5 mph 21.9 mph N/A   Mostly Cloudy
4:35 PM 68.4 °F 41.4 °F 37% 30.00 in 10.0 mi WNW 12.7 mph 23.0 mph N/A   Scattered Clouds
4:54 PM 68.2 °F 41.7 °F 38% 30.00 in 10.0 mi NW 13.8 mph 20.7 mph N/A   Scattered Clouds
5:15 PM 68.7 °F 41.4 °F 37% 30.00 in 10.0 mi NNW 12.7 mph 24.2 mph N/A   Scattered Clouds
5:35 PM 69.3 °F 41.7 °F 37% 29.99 in 10.0 mi West 12.7 mph 21.9 mph N/A   Scattered Clouds
5:54 PM 68.9 °F 41.7 °F 37% 29.99 in 10.0 mi NW 9.2 mph 18.4 mph N/A   Clear
6:15 PM 69.1 °F 41.7 °F 37% 29.99 in 10.0 mi WNW 12.7 mph 18.4 mph N/A   Scattered Clouds
6:35 PM 68.5 °F 41.4 °F 37% 29.99 in 10.0 mi WNW 11.5 mph 21.9 mph N/A   Scattered Clouds
6:54 PM 68.0 °F 41.2 °F 38% 29.99 in 10.0 mi WNW 15.0 mph 20.7 mph N/A   Scattered Clouds
7:15 PM 67.6 °F 41.0 °F 38% 29.99 in 10.0 mi WNW 9.2 mph - N/A   Clear
7:35 PM 67.3 °F 42.1 °F 40% 29.99 in 10.0 mi WNW 9.2 mph 17.3 mph N/A   Clear
7:54 PM 67.1 °F 42.6 °F 41% 29.99 in 10.0 mi WNW 8.1 mph - N/A   Scattered Clouds
8:15 PM 66.2 °F 41.0 °F 40% 29.99 in 10.0 mi NW 11.5 mph - N/A   Clear
8:35 PM 65.7 °F 41.2 °F 41% 30.00 in 10.0 mi NW 5.8 mph - N/A   Clear
8:54 PM 64.8 °F 41.9 °F 43% 30.00 in 10.0 mi NW 4.6 mph - N/A   Clear
9:15 PM 64.4 °F 42.6 °F 45% 30.00 in 10.0 mi Calm Calm - N/A   Clear
9:34 PM 62.8 °F 42.8 °F 48% 30.00 in 10.0 mi Calm Calm - N/A   Clear
9:55 PM 62.6 °F 43.5 °F 50% 30.00 in 10.0 mi Calm Calm - N/A   Clear
10:15 PM 61.3 °F 44.4 °F 54% 30.01 in 10.0 mi Calm Calm - N/A   Clear
10:34 PM 61.0 °F 43.3 °F 52% 30.01 in 10.0 mi NW 4.6 mph - N/A   Clear
10:55 PM 60.8 °F 43.2 °F 52% 30.01 in 10.0 mi NW 3.5 mph - N/A   Clear
11:14 PM 60.3 °F 42.3 °F 51% 30.01 in 10.0 mi Calm Calm - N/A   Clear
11:35 PM 59.0 °F 43.0 °F 55% 30.01 in 10.0 mi Calm Calm - N/A   Clear
11:55 PM 58.8 °F 43.0 °F 56% 30.02 in 10.0 mi Calm Calm - N/A   Clear